Location: ????????
(55.6189°N, 38.3031°E)
Time: 12:38:17
(UTC+00:00)

Cosmos 1980 Rocket - Pass Details

Date: 15 November 2019
Orbit: 828 x 851 km, 71.0° (Epoch: 14 December)

Event Time Altitude Azimuth Distance (km) Brightness Sun altitude
Exits shadow 02:06:13 47° 218° (SW) 1,114 2.5 -24.2°
Drops below altitude 10° 02:10:52 10° 172° (S) 2,472 4.7 -23.6°
Sets 02:13:21 0° 167° (SSE) 3,401 5.5 -23.2°
